Regional Weather Roundup
Issued by NWS Wakefield, VA

Home | Current Version | Previous Version | Text Only | Print | Product List | Glossary Off
Versions: 1 2 3 4 5 6 7 8 9 10 11 12 13 14 15 16 17 18 19 20 21 22 23 24 25 26 27 28 29 30 31 32 33 34 35 36 37 38 39 40 41 42 43 44 45 46 47 48 49 50

369
ASUS41 KAKQ 300715
RWRAKQ

REGIONAL WEATHER ROUNDUP
NATIONAL WEATHER SERVICE WAKEFIELD VA
300 AM EDT SAT JUL 30 2016

Note: "fair" indicates few or no clouds below 12,000 feet with no
significant weather and/or obstructions to visibility. * = Denotes
station may not report precipitation (e.g., rain,snow,etc.),
thunder or fog.

VAZ042-051-052>054-056-300800-
NORTHERN VIRGINIA

CITY           SKY/WX    TMP DP  RH WIND       PRES   REMARKS
WASH NATIONAL  MOCLDY    79  74  84 S5        29.93F
DULLES         MOCLDY    75  70  84 CALM      29.94S
FORT BELVOIR   MOCLDY    72  72 100 CALM      29.92F
QUANTICO       FAIR      77  73  87 W3        29.93
FREDERICKSBRG* FAIR      74  74 100 CALM      29.93F
STAFFORD*      FAIR      70  69  97 CALM      29.97F FOG
WARRENTON      FAIR      73  68  86 CALM      29.93F
CULPEPER*      FAIR      72  72 100 CALM      29.94F FOG
MANASSAS*      FAIR      72  72 100 CALM      29.93F
LEESBURG*      FAIR      73  73 100 CALM      29.95S
WINCHESTER     FAIR      72  70  94 CALM      29.95F
FRONT ROYAL*   FAIR      72  70  94 S5        29.94F
LURAY*         FAIR      72  72 100 CALM      29.96F
$$

VAZ048-049-060>072-079>083-300800-
CENTRAL AND SOUTH CENTRAL VIRGINIA

CITY           SKY/WX    TMP DP  RH WIND       PRES   REMARKS
RICHMOND       FAIR      74  71  91 CALM      29.94F
CHESTERFIELD*  FAIR      73  61  64 CALM      29.96S
PETERSBURG*    FAIR     N/A N/A N/A CALM      29.95F
HANOVER        FAIR      73  70  90 CALM      29.95F FOG
TAPPAHANNOCK*  NOT AVBL
QUINTON*       FAIR      72  72  99 CALM      29.93F
CHARLOTTSVILLE FAIR      74  70  87 CALM      29.95F
GORDONSVILLE*  FAIR      73  73 100 CALM      29.94F
ORANGE*          N/A     73  73 100 CALM      29.96F
LOUISA*        FAIR      75  73  94 CALM      29.93F FOG
BUMPASS*       FAIR      72  72 100 CALM      29.94F
FARMVILLE*     FAIR     N/A N/A N/A CALM      29.94F
CREWE*         NOT AVBL
FORT PICKETT*  FAIR      72  72  98 CALM      29.95F
CHASE CITY*    FAIR      74  72  95 CALM      29.95F
CLARKSVILLE*   FAIR      72  72 100 CALM      29.94F
SOUTH HILL*    FAIR      72  71  98 CALM      30.00F
LAWRENCEVILLE* FAIR      73  73 100 CALM      29.94F
EMPORIA*       FAIR      70  70 100 CALM      29.95F
$$

VAZ088>098-300800-
SOUTHEAST VIRGINIA

CITY           SKY/WX    TMP DP  RH WIND       PRES   REMARKS
NORFOLK        FAIR      77  73  87 S3        29.94S
VIRGINIA BEACH FAIR      79  71  76 CALM      29.94S
NORFOLK NAVAL  FAIR      76  72  87 CALM      29.95S
WEST POINT*    FAIR      71  70  97 CALM      29.95F
SALUDA*        FAIR      74  74 100 CALM      29.94F
NEWPORT NEWS   FAIR      73  73 100 CALM      29.94F
LANGLEY AFB    FAIR      75  74  95 CALM      29.94S
FORT EUSTIS    FAIR      75  74  97 CALM      29.92F
WILLIAMSBURG*  FAIR      75  75 100 CALM      29.95S
HR EXEC AP*    FAIR      70  66  88 CALM      29.97S
FRANKLIN*      FAIR      73  71  96 CALM      29.94F
US460-WAKEFLD  FAIR      73  71  93 CALM      29.94F FOG
$$

VAZ020-022-025-037-045-300800-
WEST CENTRAL AND SOUTHWEST VIRGINIA

CITY           SKY/WX    TMP DP  RH WIND       PRES   REMARKS
STAUNTON*      MOCLDY    70  69  96 CALM      29.99F
WAYNESBORO*    CLOUDY    71  69  93 CALM      29.99F
HOT SPRINGS VA NOT AVBL
LYNCHBURG      CLOUDY    74  71  91 NW6       29.98F
DANVILLE       MOCLDY    74  72  93 SE3       29.95F
SOUTH BOSTON*  FAIR     N/A N/A N/A CALM      29.94F
MARTINSVILLE   MOCLDY    72  70  95 CALM      29.99F
ROANOKE        CLOUDY    73  71  93 NE7       30.01F
BLACKSBURG     CLOUDY    70  69  99 CALM      30.06F FOG
DUBLIN*        FAIR      68  68 100 CALM      30.05F
MARION*        FOG       67  65  96 W5        30.08F VSB 1/4
HILLSVILLE*    CLOUDY    67  67 100 CALM      30.05F FOG
RICHLANDS*     FOG       65  65 100 CALM      30.06F VSB<1/4
WISE*          FOG       64  64 100 SW5       30.07F VSB<1/4
ABINGDON*      CLOUDY    68  68 100 CALM      30.04F FOG
$$

MDZ021>025-VAZ099-100-300800-
SOUTHERN MARYLAND AND THE DELMARVA PENINSULA

CITY           SKY/WX    TMP DP  RH WIND       PRES   REMARKS
PATUXENT RIVER NOT AVBL
BAY BRIDGE APT CLEAR     79  77  94 S6        29.93F
LEONARDTOWN    CLEAR     72  70  94 S3        29.96S
DOVER          NOT AVBL
GEORGETOWN     CLEAR     73  72  96 SW3       29.95F FOG
EASTON         CLEAR     76  76  98 S3        29.98S
CAMBRIDGE      CLEAR     72  72 100 CALM      29.94F
SALISBURY      NOT AVBL
OCEAN CITY     CLEAR     72  70  93 CALM      29.95S
WALLOPS ISLAND FAIR      76  73  91 CALM      29.95F
ACCOMACK*      FAIR      73  72  94 CALM      29.95S
$$

NCZ012>017-030>032-300800-
NORTH CENTRAL AND EASTERN NORTH CAROLINA

CITY           SKY/WX    TMP DP  RH WIND       PRES   REMARKS
ROANOKE RAPIDS FAIR      70  70 100 CALM      29.94F FOG
RALEIGH        PTCLDY    78  71  79 SE5       29.94F
ELIZABETH CITY CLEAR     75  74  96 CALM      29.94F
AHOSKIE*       CLEAR     72  71  98 CALM      29.94F
EDENTON*       CLEAR    N/A N/A N/A CALM      29.95S
CURRITUCK*     CLEAR     76  76 100 CALM      29.95S
KILL DEVIL HLS CLEAR     76  76 100 CALM      29.93F
MANTEO           N/A     76  76 100 CALM      29.94F
CAPE HATTERAS  CLEAR     78  75  90 CALM      29.94S
TARBORO*       FAIR      74  73  98 CALM      29.95S
GOLDSBORO      CLEAR     76  76 100 E3        29.92F
WASHINGTON     CLEAR     76  73  93 CALM      29.94F
GREENVILLE     CLEAR     77  75  94 CALM      29.96S
NEW BERN       CLEAR     77  75  93 CALM      29.95F
WILMINGTON     CLOUDY    80  73  79 CALM      29.93F
$$

VAZ048-300800-
ELSEWHERE

CITY           SKY/WX    TMP DP  RH WIND       PRES   REMARKS
HARRISBURG PA  PTCLDY    75  69  81 CALM      29.94S
BALTIMORE      PTCLDY    74  72  93 CALM      29.92F
ANNAPOLIS      CLEAR     78  72  81 CALM      29.92F
ANDREWS AFB    FAIR      73  71  92 S2        29.93F
PHILADELPHIA   PTCLDY    76  71  85 CALM      29.95R
GREENSBORO     CLOUDY    77  70  79 NE5       29.95F
ROCKY MOUNT    CLEAR     73  73 100 CALM      29.94F
$$

VAZ100-300800-
MARINE

STATION/POSITION TIME  TEMP    WIND        PRES    WAVE   SWELL
                       AIR SEA DIR/SP/G            HT/PER HT/PER
                 (UTC) (F)     (DEG/KT/KT) (MB)    (FT/S) (FT/S)
BRANDYWINE LGT   0600   75     200/  7/  8   N/A
CAPE MAY NJ      0600   73 72  150/  3/  4 1013.7F
LEWES DE         0600   74 72  170/  3/  4 1013.9F
OCEAN-CITY-INLET 0600   74 75   CALM  /  1 1014.4F
WACHAPREAGUE VA  0600   78 85   90/  1/  3 1014.2S
THOMAS POINT MD  0600   82 83  180/  9/ 10 1015.1F
GOOSES REEF MD   0600   83 85  200/  8/  8 1014.9S   0
COVE POINT MD    0600   80     230/  5/  7 1014.5S
SOLOMONS ISLAND  0600   80 85  200/  5/  6   N/A
BISHOPS HEAD MD  0600   81     180/  8/ 10 1014.2F
PINEY POINT MD   0600          220/  7/  7   N/A
POTOMAC MD       0600   82 84  250/  6/  6 1013.0S   1
CAMBRIDGE MD     0600   76 88  150/  2/  5 1013.2F
LEWISETTA VA     0600   78 87  230/  5/  5 1013.7S
RAPPAHANNOCK LGT 0600          150/  7/  8 1014.6F
STINGRAY PT      0600   84 86  170/  4/  4 1014.5F   0
YORK RVR RNG VA  0600   82     190/  3/  3 1013.5F
YORKTOWN VA      0600   78 85  210/  5/  5 1013.6F
JAMESTOWN VA     0600   81 89  180/  4/  6   N/A     0
DOMINION TERM VA 0600   81     180/  2/  2 1014.1S
KIPTOPEKE VA     0600      80   90/  2/  3   N/A
CHES BAY BRIDGE  0600   81 82  140/  2/  3 1013.8F
CAPE HENRY VA    0600   80     140/  2/  3   N/A
WILLOUBY STN VA  0600   81        CALM       N/A
CAPE HENRY BUOY  0612      80                N/A     1/ 8
1ST LANDING BUOY 0600   81 81  160/  2/  4 1013.8F   1/ 4
CAPE CHARLES BUO 0626      77                N/A     2/ 5
OFFSHORE WE BUOY 0621      82                N/A     2/13
64NM E OF VA BCH 0550   80 83   70/  4/  6 1013.6    2/ 6   2/ 6
DUCK PIER NC     0600   79 70  110/  1/  1 1013.4S
44100 DUCK FRF   0605      81                N/A     2/ 8
44056 DUCK FRF   0611      78                N/A     1/ 8
OREGON INLET NC  0600   78 75  360/  2/  3 1013.9S
HATTERAS NC      0600   81 84  170/  2/  3 1013.5F
DIAMOND SHLS NC  0550   84 85  230/  4/  4 1013.9    3/ 4   3/ 4
CAPE LOOKOUT NC  0600   82     260/  7/  8 1013.7F
$$




USA.gov is the U.S. government's official web portal to all federal, state and local government web resources and services.